Middletown, OH

4:09 AM EDT on August 19, 2017 (GMT -0400)
Hook Field Municipal

Weather History for KMWO - January, 2014

Change the Weather History Date:

Monday, January 20, 2014

  Actual Average (KFFO) Record (KFFO)
Temperature  
Mean Temperature 33 °F -  
Max Temperature 38 °F 32 °F 60 °F (2006)
Min Temperature 28 °F 15 °F 1 °F (2008)
Degree Days  
Heating Degree Days 32    
Moisture  
Dew Point 24 °F    
Average Humidity 66    
Maximum Humidity 87    
Minimum Humidity 54    
Precipitation  
Precipitation 0.00 in - - ()
Sea Level Pressure  
Sea Level Pressure 29.84 in    
Wind  
Wind Speed 9 mph (West)    
Max Wind Speed 16 mph    
Max Gust Speed 21 mph    
Visibility 10 miles    
Events Snow    
Averages and records for this station are not official NWS values.
T = Trace of Precipitation, MM = Missing Value Source: NWS Daily Summary

Daily Weather History Graph

Daily Weather History Graph

Search for Another Location

Airport or City:

Trip Planner

Search our weather history database for the weather conditions in past years. The results will help you decide how hot, cold, wet, or windy it might be!

Date:

Astronomy

Jan. 20, 2014 Rise Set
Actual Time 7:53 AM EST 5:43 PM EST
Civil Twilight 7:24 AM EST 6:12 PM EST
Nautical Twilight 6:51 AM EST 6:45 PM EST
Astronomical Twilight 6:19 AM EST 7:17 PM EST
Moon 10:16 PM EST (1/20) 9:54 AM EST (1/20)
Length of Visible Light 10h 48m
Length of Day
9h 49m
Waning Gibbous, 83% of the Moon is Illuminated
Jan 20
Waning Gibbous
Jan 24
Last Quarter
Jan 30
New
Feb 6
First Quarter
Feb 14
Full

Hourly Weather History & Observations

Time (EST) Temp. Windchill Dew Point Humidity Pressure Visibility Wind Dir Wind Speed Gust Speed Precip Events Conditions
12:15 AM 35.1 °F 25.5 °F 22.3 °F 60% 29.74 in 10.0 mi SW 15.0 mph - N/A   Clear
12:35 AM 35.1 °F 25.2 °F 21.6 °F 58% 29.73 in 10.0 mi SW 16.1 mph - N/A   Clear
12:55 AM 35.1 °F 25.9 °F 21.2 °F 57% 29.72 in 10.0 mi SW 13.8 mph 20.7 mph N/A   Clear
1:15 AM 35.1 °F 25.2 °F 21.0 °F 57% 29.71 in 10.0 mi SW 16.1 mph - N/A   Clear
1:35 AM 35.6 °F 27.5 °F 21.2 °F 56% 29.70 in 10.0 mi SW 11.5 mph - N/A   Clear
1:55 AM 35.1 °F 26.9 °F 21.4 °F 57% 29.70 in 10.0 mi SW 11.5 mph 16.1 mph N/A   Clear
2:15 AM 37.6 °F 30.0 °F 22.5 °F 54% 29.69 in 10.0 mi SW 11.5 mph 18.4 mph N/A   Clear
2:35 AM 35.1 °F 27.4 °F 20.8 °F 56% 29.70 in 10.0 mi SW 10.4 mph - N/A   Clear
2:55 AM 35.1 °F 26.4 °F 21.2 °F 57% 29.70 in 10.0 mi SW 12.7 mph - N/A   Clear
3:15 AM 35.1 °F 27.4 °F 21.2 °F 57% 29.70 in 10.0 mi SW 10.4 mph - N/A   Clear
3:35 AM 35.1 °F 27.4 °F 22.3 °F 60% 29.71 in 10.0 mi SW 10.4 mph - N/A   Clear
3:55 AM 32.7 °F 26.4 °F 20.8 °F 62% 29.71 in 10.0 mi SW 6.9 mph - N/A   Clear
4:15 AM 32.5 °F 24.8 °F 21.0 °F 63% 29.71 in 10.0 mi SSW 9.2 mph - N/A   Clear
4:35 AM 32.5 °F 24.8 °F 20.7 °F 62% 29.72 in 10.0 mi SSW 9.2 mph - N/A   Clear
4:55 AM 31.3 °F 24.7 °F 21.2 °F 66% 29.72 in 10.0 mi SW 6.9 mph - N/A   Clear
5:15 AM 31.8 °F 24.6 °F 21.9 °F 67% 29.73 in 10.0 mi SW 8.1 mph - N/A   Clear
5:35 AM 28.9 °F 21.9 °F 20.5 °F 71% 29.73 in 10.0 mi WSW 6.9 mph - N/A   Clear
5:55 AM 28.2 °F 19.5 °F 19.6 °F 70% 29.74 in 10.0 mi SW 9.2 mph - N/A   Clear
6:15 AM 32.5 °F 25.5 °F 23.2 °F 68% 29.75 in 10.0 mi SW 8.1 mph - N/A   Clear
6:35 AM 30.2 °F 22.6 °F 20.8 °F 68% 29.76 in 10.0 mi SW 8.1 mph - N/A   Clear
6:55 AM 32.5 °F 25.5 °F 23.0 °F 68% 29.76 in 10.0 mi WSW 8.1 mph - N/A   Clear
7:15 AM 31.6 °F 25.1 °F 23.7 °F 73% 29.78 in 10.0 mi WSW 6.9 mph - N/A   Clear
7:35 AM 32.5 °F 24.8 °F 22.6 °F 67% 29.79 in 10.0 mi WSW 9.2 mph - N/A   Clear
7:55 AM 32.5 °F 24.8 °F 22.3 °F 66% 29.80 in 10.0 mi West 9.2 mph - N/A   Scattered Clouds
8:15 AM 34.2 °F 27.5 °F 23.4 °F 65% 29.81 in 10.0 mi West 8.1 mph - N/A   Mostly Cloudy
8:35 AM 35.1 °F 28.6 °F 24.6 °F 66% 29.82 in 10.0 mi West 8.1 mph - N/A   Mostly Cloudy
8:55 AM 35.1 °F 28.6 °F 24.3 °F 65% 29.83 in 10.0 mi West 8.1 mph - N/A   Overcast
9:15 AM 35.1 °F 29.3 °F 24.8 °F 66% 29.84 in 10.0 mi West 6.9 mph - N/A   Overcast
9:35 AM 35.1 °F 30.1 °F 24.6 °F 66% 29.85 in 10.0 mi West 5.8 mph - N/A   Overcast
9:55 AM 35.2 °F 29.5 °F 25.0 °F 66% 29.85 in 10.0 mi West 6.9 mph - N/A   Overcast
10:15 AM 35.8 °F 28.3 °F 25.2 °F 65% 29.87 in 10.0 mi West 10.4 mph - N/A   Overcast
10:35 AM 37.6 °F 32.3 °F 26.4 °F 64% 29.87 in 10.0 mi West 6.9 mph - N/A   Scattered Clouds
10:55 AM 37.6 °F 31.0 °F 26.1 °F 63% 29.88 in 10.0 mi West 9.2 mph - N/A   Clear
11:15 AM 37.6 °F 32.3 °F 25.5 °F 62% 29.89 in 10.0 mi West 6.9 mph - N/A   Clear
11:35 AM 37.6 °F 32.3 °F 25.0 °F 60% 29.90 in 10.0 mi West 6.9 mph - N/A   Scattered Clouds
11:55 AM 38.3 °F 32.5 °F 23.7 °F 56% 29.90 in 10.0 mi WNW 8.1 mph - N/A   Scattered Clouds
12:15 PM 37.8 °F 31.8 °F 23.9 °F 57% 29.89 in 10.0 mi WSW 8.1 mph - N/A   Scattered Clouds
12:35 PM 37.8 °F 33.3 °F 23.5 °F 57% 29.89 in 10.0 mi West 5.8 mph - N/A   Scattered Clouds
1:15 PM 37.8 °F 31.8 °F 23.7 °F 57% 29.88 in 10.0 mi WNW 8.1 mph - N/A   Scattered Clouds
1:35 PM 37.9 °F 33.5 °F 23.9 °F 57% 29.88 in 10.0 mi West 5.8 mph - N/A   Scattered Clouds
1:55 PM 38.5 °F 31.1 °F 24.4 °F 57% 29.88 in 10.0 mi West 11.5 mph - N/A   Scattered Clouds
2:15 PM 38.8 °F 33.2 °F 24.4 °F 56% 29.88 in 10.0 mi WNW 8.1 mph 17.3 mph N/A   Mostly Cloudy
2:35 PM 38.5 °F 30.7 °F 24.3 °F 57% 29.88 in 10.0 mi NW 12.7 mph 16.1 mph N/A   Mostly Cloudy
2:55 PM 38.8 °F 33.2 °F 24.4 °F 56% 29.89 in 10.0 mi WNW 8.1 mph - N/A   Mostly Cloudy
3:15 PM 38.8 °F 33.8 °F 24.3 °F 56% 29.89 in 10.0 mi NW 6.9 mph - N/A   Mostly Cloudy
3:35 PM 38.1 °F 30.7 °F 23.7 °F 56% 29.90 in 10.0 mi NW 11.5 mph - N/A   Mostly Cloudy
3:55 PM 37.6 °F 31.0 °F 23.2 °F 56% 29.91 in 10.0 mi WNW 9.2 mph - N/A   Mostly Cloudy
4:15 PM 37.6 °F 31.6 °F 24.8 °F 60% 29.91 in 10.0 mi NW 8.1 mph - N/A   Overcast
4:35 PM 37.6 °F 32.3 °F 24.6 °F 60% 29.92 in 10.0 mi NW 6.9 mph - N/A   Overcast
4:55 PM 37.6 °F 31.6 °F 25.3 °F 61% 29.94 in 10.0 mi NNW 8.1 mph - N/A   Overcast
5:15 PM 36.3 °F 31.6 °F 25.0 °F 63% 29.94 in 10.0 mi North 5.8 mph - N/A   Overcast
5:35 PM 35.2 °F 30.3 °F 24.4 °F 65% 29.94 in 10.0 mi NNE 5.8 mph - N/A   Overcast
5:55 PM 35.1 °F 31.0 °F 24.6 °F 66% 29.93 in 10.0 mi NE 4.6 mph - N/A   Overcast
6:15 PM 35.1 °F 30.1 °F 25.2 °F 67% 29.94 in 10.0 mi NE 5.8 mph - N/A   Overcast
6:35 PM 35.1 °F 32.2 °F 25.7 °F 69% 29.94 in 10.0 mi NE 3.5 mph - N/A   Mostly Cloudy
6:55 PM 35.1 °F - 25.7 °F 69% 29.94 in 10.0 mi Calm Calm - N/A   Scattered Clouds
7:15 PM 35.1 °F - 26.1 °F 70% 29.94 in 10.0 mi Calm Calm - N/A   Clear
7:35 PM 35.1 °F - 25.7 °F 69% 29.93 in 10.0 mi Calm Calm - N/A   Scattered Clouds
7:55 PM 32.5 °F - 26.1 °F 77% 29.93 in 10.0 mi Calm Calm - N/A   Scattered Clouds
8:15 PM 32.5 °F - 26.2 °F 78% 29.93 in 10.0 mi Calm Calm - N/A   Overcast
8:35 PM 32.5 °F - 26.2 °F 78% 29.92 in 10.0 mi Calm Calm - N/A   Overcast
8:55 PM 32.5 °F - 26.2 °F 78% 29.92 in 10.0 mi Calm Calm - N/A   Overcast
9:15 PM 32.5 °F - 27.0 °F 80% 29.92 in 10.0 mi Calm Calm - N/A   Overcast
9:35 PM 32.5 °F - 26.8 °F 79% 29.91 in 10.0 mi Calm Calm - N/A   Overcast
9:55 PM 32.5 °F - 27.0 °F 80% 29.91 in 10.0 mi Calm Calm - N/A   Overcast
10:15 PM 32.5 °F - 27.1 °F 80% 29.91 in 10.0 mi Calm Calm - N/A   Overcast
10:35 PM 32.5 °F - 27.5 °F 82% 29.91 in 10.0 mi Calm Calm - N/A   Overcast
10:55 PM 32.5 °F - 27.5 °F 82% 29.91 in 3.0 mi Calm Calm - N/A Snow Light Snow
11:15 PM 32.5 °F - 28.4 °F 85% 29.90 in 3.0 mi Calm Calm - N/A Snow Light Snow
11:35 PM 32.5 °F - 28.8 °F 86% 29.90 in 2.5 mi Calm Calm - N/A Snow Light Snow
11:55 PM 32.5 °F - 29.1 °F 87% 29.90 in 1.8 mi Calm Calm - N/A Snow Light Snow